Time,TemperatureF,DewpointF,PressureIn,WindDirection,WindDirectionDegrees,WindSpeedMPH,WindSpeedGustMPH,Humidity,HourlyPrecipIn,Conditions,Clouds,dailyrainin,SoftwareType,DateUTC
2013-07-15 00:00:00,73.8,70.3,29.85,SSW,200,0.0,0.0,89,0.00,,,0.00,VWS V14.01,2013-07-15 04:00:00,
2013-07-15 00:01:00,73.6,70.1,29.85,SSW,200,0.0,0.0,89,0.00,,,0.00,VWS V14.01,2013-07-15 04:01:00,
2013-07-15 00:06:00,73.6,70.1,29.85,SSW,200,0.0,0.0,89,0.00,,,0.00,VWS V14.01,2013-07-15 04:06:00,
2013-07-15 00:11:00,73.4,70.0,29.85,SSW,200,0.0,0.0,89,0.00,,,0.00,VWS V14.01,2013-07-15 04:11:00,
2013-07-15 00:16:00,73.4,70.0,29.85,SSW,200,0.0,0.0,89,0.00,,,0.00,VWS V14.01,2013-07-15 04:16:00,
2013-07-15 00:21:00,73.6,70.1,29.85,SSW,200,0.0,0.0,89,0.00,,,0.00,VWS V14.01,2013-07-15 04:21:00,
2013-07-15 00:26:00,73.6,70.1,29.85,SSW,200,0.0,0.0,89,0.00,,,0.00,VWS V14.01,2013-07-15 04:26:00,
2013-07-15 00:31:00,73.6,70.1,29.85,SSW,200,0.0,0.0,89,0.00,,,0.00,VWS V14.01,2013-07-15 04:31:00,
2013-07-15 00:36:00,73.6,70.5,29.85,SSW,200,0.0,0.0,90,0.00,,,0.00,VWS V14.01,2013-07-15 04:36:00,
2013-07-15 00:41:00,73.6,70.5,29.85,SSW,200,0.0,0.0,90,0.00,,,0.00,VWS V14.01,2013-07-15 04:41:00,
2013-07-15 00:46:00,73.8,70.7,29.85,SSW,200,0.0,0.0,90,0.00,,,0.00,VWS V14.01,2013-07-15 04:46:00,
2013-07-15 00:51:00,73.8,70.7,29.85,SSW,200,0.0,0.0,90,0.00,,,0.00,VWS V14.01,2013-07-15 04:51:00,
2013-07-15 00:56:00,73.8,70.7,29.85,SSW,200,0.0,0.0,90,0.00,,,0.00,VWS V14.01,2013-07-15 04:56:00,
2013-07-15 01:01:00,73.8,70.7,29.85,SSW,200,0.0,0.0,90,0.00,,,0.00,VWS V14.01,2013-07-15 05:01:00,
2013-07-15 01:06:00,73.8,70.7,29.85,SSW,200,0.0,0.0,90,0.00,,,0.00,VWS V14.01,2013-07-15 05:06:00,
2013-07-15 01:11:00,73.8,70.7,29.85,SSW,200,0.0,0.0,90,0.00,,,0.00,VWS V14.01,2013-07-15 05:11:00,
2013-07-15 01:16:00,73.8,71.0,29.83,SSW,200,0.0,0.0,91,0.00,,,0.00,VWS V14.01,2013-07-15 05:16:00,
2013-07-15 01:21:00,73.8,71.0,29.83,SSW,200,0.0,0.0,91,0.00,,,0.00,VWS V14.01,2013-07-15 05:21:00,
2013-07-15 01:26:00,73.8,71.0,29.83,SSW,200,0.0,0.0,91,0.00,,,0.00,VWS V14.01,2013-07-15 05:26:00,
2013-07-15 01:31:00,73.6,70.8,29.83,SSW,200,0.0,0.0,91,0.00,,,0.00,VWS V14.01,2013-07-15 05:31:00,
2013-07-15 01:36:00,73.6,70.8,29.83,SSW,200,0.0,0.0,91,0.00,,,0.00,VWS V14.01,2013-07-15 05:36:00,
2013-07-15 01:41:00,73.6,70.8,29.83,SSW,200,0.0,0.0,91,0.00,,,0.00,VWS V14.01,2013-07-15 05:41:00,
2013-07-15 01:46:00,73.4,70.6,29.83,SSW,200,0.0,0.0,91,0.00,,,0.00,VWS V14.01,2013-07-15 05:46:00,
2013-07-15 01:51:00,73.4,70.6,29.83,SSW,200,0.0,0.0,91,0.00,,,0.00,VWS V14.01,2013-07-15 05:51:00,
2013-07-15 01:56:00,73.2,70.8,29.83,SSW,200,0.0,0.0,92,0.00,,,0.00,VWS V14.01,2013-07-15 05:56:00,
2013-07-15 02:01:00,73.2,70.8,29.83,SSW,200,0.0,0.0,92,0.00,,,0.00,VWS V14.01,2013-07-15 06:01:00,
2013-07-15 02:06:00,73.0,70.6,29.83,SSW,200,0.0,0.0,92,0.00,,,0.00,VWS V14.01,2013-07-15 06:06:00,
2013-07-15 02:11:00,73.0,70.6,29.83,SSW,200,0.0,0.0,92,99.99,,,99.99,VWS V14.01,2013-07-15 06:11:00,
2013-07-15 02:16:00,73.0,70.6,29.83,SSW,200,0.0,0.0,92,99.99,,,99.99,VWS V14.01,2013-07-15 06:16:00,
2013-07-15 02:21:00,73.0,70.6,29.83,SSW,200,0.0,0.0,92,0.00,,,0.00,VWS V14.01,2013-07-15 06:21:00,
2013-07-15 02:26:00,73.0,70.6,29.83,SSW,200,0.0,0.0,92,0.00,,,0.00,VWS V14.01,2013-07-15 06:26:00,
2013-07-15 02:31:00,72.9,70.4,29.83,SSW,200,0.0,0.0,92,0.00,,,0.00,VWS V14.01,2013-07-15 06:31:00,
2013-07-15 02:36:00,72.9,70.7,29.83,SSW,200,0.0,0.0,93,0.00,,,0.00,VWS V14.01,2013-07-15 06:36:00,
2013-07-15 02:41:00,72.9,70.7,29.83,SSW,200,0.0,0.0,93,0.00,,,0.00,VWS V14.01,2013-07-15 06:41:00,
2013-07-15 02:46:00,72.9,70.7,29.83,SSW,200,0.0,0.0,93,0.00,,,0.00,VWS V14.01,2013-07-15 06:46:00,
2013-07-15 02:51:00,72.9,70.7,29.83,SSW,200,0.0,0.0,93,0.00,,,0.00,VWS V14.01,2013-07-15 06:51:00,
2013-07-15 02:56:00,72.9,70.7,29.83,SSW,200,0.0,0.0,93,0.00,,,0.00,VWS V14.01,2013-07-15 06:56:00,
2013-07-15 03:01:00,72.9,70.7,29.83,SSW,200,0.0,0.0,93,0.00,,,0.00,VWS V14.01,2013-07-15 07:01:00,
2013-07-15 03:06:00,72.9,70.7,29.83,SSW,200,0.0,0.0,93,0.00,,,0.00,VWS V14.01,2013-07-15 07:06:00,
2013-07-15 03:11:00,72.9,70.7,29.83,SSW,200,0.0,0.0,93,0.00,,,0.00,VWS V14.01,2013-07-15 07:11:00,
2013-07-15 03:16:00,72.9,70.7,29.83,SSW,200,0.0,0.0,93,0.00,,,0.00,VWS V14.01,2013-07-15 07:16:00,
2013-07-15 03:21:00,72.9,70.7,29.83,SSW,200,0.0,0.0,93,0.00,,,0.00,VWS V14.01,2013-07-15 07:21:00,
2013-07-15 03:26:00,72.9,70.7,29.83,SSW,200,0.0,0.0,93,0.00,,,0.00,VWS V14.01,2013-07-15 07:26:00,
2013-07-15 03:31:00,72.9,70.7,29.83,SSW,200,0.0,0.0,93,0.00,,,0.00,VWS V14.01,2013-07-15 07:31:00,
2013-07-15 03:36:00,72.9,71.0,29.83,SSW,200,0.0,0.0,94,0.00,,,0.00,VWS V14.01,2013-07-15 07:36:00,
2013-07-15 03:41:00,72.9,71.0,29.83,SSW,200,0.0,0.0,94,0.00,,,0.00,VWS V14.01,2013-07-15 07:41:00,
2013-07-15 03:46:00,72.9,71.0,29.83,SSW,200,0.0,0.0,94,0.00,,,0.00,VWS V14.01,2013-07-15 07:46:00,
2013-07-15 03:51:00,72.9,71.0,29.83,SSW,200,0.0,0.0,94,0.00,,,0.00,VWS V14.01,2013-07-15 07:51:00,
2013-07-15 03:56:00,72.9,71.0,29.83,SSW,200,0.0,0.0,94,0.00,,,0.00,VWS V14.01,2013-07-15 07:56:00,
2013-07-15 04:01:00,72.9,71.0,29.83,SSW,200,0.0,0.0,94,0.00,,,0.00,VWS V14.01,2013-07-15 08:01:00,
2013-07-15 04:06:00,72.7,70.9,29.83,SSW,200,0.0,0.0,94,0.00,,,0.00,VWS V14.01,2013-07-15 08:06:00,
2013-07-15 04:11:00,72.7,70.9,29.83,SSW,200,0.0,0.0,94,0.00,,,0.00,VWS V14.01,2013-07-15 08:11:00,
2013-07-15 04:16:00,72.7,70.9,29.83,SSW,200,0.0,0.0,94,0.00,,,0.00,VWS V14.01,2013-07-15 08:16:00,
2013-07-15 04:21:00,72.7,70.9,29.83,SSW,200,0.0,0.0,94,0.00,,,0.00,VWS V14.01,2013-07-15 08:21:00,
2013-07-15 04:26:00,72.7,70.9,29.83,SSW,200,0.0,0.0,94,0.00,,,0.00,VWS V14.01,2013-07-15 08:26:00,
2013-07-15 04:31:00,72.5,70.7,29.83,SSW,200,0.0,0.0,94,0.00,,,0.00,VWS V14.01,2013-07-15 08:31:00,
2013-07-15 04:36:00,72.5,70.7,29.83,SSW,200,0.0,0.0,94,0.00,,,0.00,VWS V14.01,2013-07-15 08:36:00,
2013-07-15 04:41:00,72.5,70.7,29.83,SSW,200,0.0,0.0,94,0.00,,,0.00,VWS V14.01,2013-07-15 08:41:00,
2013-07-15 04:46:00,72.5,70.7,29.83,SSW,200,0.0,0.0,94,0.00,,,0.00,VWS V14.01,2013-07-15 08:46:00,
2013-07-15 04:51:00,72.5,70.7,29.83,SSW,200,0.0,0.0,94,0.00,,,0.00,VWS V14.01,2013-07-15 08:51:00,
2013-07-15 04:56:00,72.5,70.7,29.83,SSW,200,0.0,0.0,94,0.00,,,0.00,VWS V14.01,2013-07-15 08:56:00,
2013-07-15 05:01:00,72.7,71.2,29.83,SSW,200,0.0,0.0,95,0.00,,,0.00,VWS V14.01,2013-07-15 09:01:00,
2013-07-15 05:06:00,72.7,71.2,29.83,SSW,200,0.0,0.0,95,0.00,,,0.00,VWS V14.01,2013-07-15 09:06:00,
2013-07-15 05:11:00,72.7,71.2,29.83,SSW,200,0.0,0.0,95,0.00,,,0.00,VWS V14.01,2013-07-15 09:11:00,
2013-07-15 05:16:00,72.7,71.2,29.83,SSW,200,0.0,0.0,95,0.00,,,0.00,VWS V14.01,2013-07-15 09:16:00,
2013-07-15 05:21:00,72.7,71.2,29.83,SSW,200,0.0,0.0,95,0.00,,,0.00,VWS V14.01,2013-07-15 09:21:00,
2013-07-15 05:26:00,72.7,71.2,29.83,SSW,200,0.0,0.0,95,0.00,,,0.00,VWS V14.01,2013-07-15 09:26:00,
2013-07-15 05:31:00,72.7,71.2,29.83,SSW,200,0.0,0.0,95,0.00,,,0.00,VWS V14.01,2013-07-15 09:31:00,
2013-07-15 05:36:00,72.9,71.3,29.83,SSW,200,0.0,0.0,95,0.00,,,0.00,VWS V14.01,2013-07-15 09:36:00,
2013-07-15 05:41:00,72.7,71.2,29.83,SSW,200,0.0,0.0,95,0.00,,,0.00,VWS V14.01,2013-07-15 09:41:00,
2013-07-15 05:46:00,72.7,71.2,29.83,SSW,200,0.0,0.0,95,0.00,,,0.00,VWS V14.01,2013-07-15 09:46:00,
2013-07-15 05:51:00,72.7,71.2,29.83,SSW,200,0.0,0.0,95,0.00,,,0.00,VWS V14.01,2013-07-15 09:51:00,
2013-07-15 05:56:00,72.7,71.2,29.83,SSW,200,0.0,0.0,95,0.00,,,0.00,VWS V14.01,2013-07-15 09:56:00,
2013-07-15 06:01:00,72.7,71.2,29.83,SSW,200,0.0,0.0,95,0.00,,,0.00,VWS V14.01,2013-07-15 10:01:00,
2013-07-15 06:06:00,72.7,71.2,29.83,SSW,200,0.0,0.0,95,0.00,,,0.00,VWS V14.01,2013-07-15 10:06:00,
2013-07-15 06:11:00,72.7,71.2,29.83,SSW,200,0.0,0.0,95,0.00,,,0.00,VWS V14.01,2013-07-15 10:11:00,
2013-07-15 06:16:00,72.7,71.2,29.83,SSW,200,0.0,0.0,95,0.00,,,0.00,VWS V14.01,2013-07-15 10:16:00,
2013-07-15 06:21:00,72.7,71.2,29.83,SSW,200,0.0,0.0,95,0.00,,,0.00,VWS V14.01,2013-07-15 10:21:00,
2013-07-15 06:26:00,72.7,71.2,29.83,SSW,200,0.0,0.0,95,0.00,,,0.00,VWS V14.01,2013-07-15 10:26:00,
2013-07-15 06:30:00,72.7,71.2,29.83,SSW,200,0.0,0.0,95,0.00,,,0.00,VWS V14.01,2013-07-15 10:30:00,
2013-07-15 06:35:00,72.7,71.2,29.83,SSW,200,0.0,0.0,95,0.00,,,0.00,VWS V14.01,2013-07-15 10:35:00,
2013-07-15 06:41:00,72.9,71.3,29.83,SSW,200,0.0,0.0,95,0.00,,,0.00,VWS V14.01,2013-07-15 10:41:00,
2013-07-15 06:46:00,72.9,71.7,29.83,SSW,200,0.0,0.0,96,0.00,,,0.00,VWS V14.01,2013-07-15 10:46:00,
2013-07-15 06:51:00,73.0,71.8,29.83,SSW,200,0.0,0.0,96,0.00,,,0.00,VWS V14.01,2013-07-15 10:51:00,
2013-07-15 06:56:00,73.2,72.0,29.83,SSW,200,0.0,0.0,96,0.00,,,0.00,VWS V14.01,2013-07-15 10:56:00,
2013-07-15 07:01:00,73.4,71.9,29.83,SSW,200,0.0,0.0,95,0.00,,,0.00,VWS V14.01,2013-07-15 11:01:00,
2013-07-15 07:06:00,73.6,72.1,29.83,SSW,200,0.0,0.0,95,0.00,,,0.00,VWS V14.01,2013-07-15 11:06:00,
2013-07-15 07:11:00,73.8,72.2,29.83,SSW,200,0.0,0.0,95,0.00,,,0.00,VWS V14.01,2013-07-15 11:11:00,
2013-07-15 07:16:00,74.1,72.9,29.83,SSW,200,0.0,0.0,96,0.00,,,0.00,VWS V14.01,2013-07-15 11:16:00,
2013-07-15 07:21:00,74.3,73.1,29.83,SSW,200,0.0,0.0,96,0.00,,,0.00,VWS V14.01,2013-07-15 11:21:00,
2013-07-15 07:26:00,74.5,73.3,29.83,SSW,200,0.0,0.0,96,0.00,,,0.00,VWS V14.01,2013-07-15 11:26:00,
2013-07-15 07:31:00,74.5,73.0,29.83,SSW,200,0.0,0.0,95,0.00,,,0.00,VWS V14.01,2013-07-15 11:31:00,
2013-07-15 07:36:00,74.5,73.0,29.83,SSW,200,0.0,0.0,95,0.00,,,0.00,VWS V14.01,2013-07-15 11:36:00,
2013-07-15 07:41:00,75.0,73.8,29.83,SSW,200,0.0,0.0,96,0.00,,,0.00,VWS V14.01,2013-07-15 11:41:00,
2013-07-15 07:46:00,75.4,73.8,29.83,SSW,200,0.0,0.0,95,0.00,,,0.00,VWS V14.01,2013-07-15 11:46:00,
2013-07-15 07:51:00,75.7,74.2,29.83,SSW,200,0.0,0.0,95,0.00,,,0.00,VWS V14.01,2013-07-15 11:51:00,
2013-07-15 07:56:00,76.1,74.6,29.83,SSW,200,0.0,0.0,95,0.00,,,0.00,VWS V14.01,2013-07-15 11:56:00,
2013-07-15 08:00:00,76.5,74.9,29.83,SSW,200,0.0,0.0,95,0.00,,,0.00,VWS V14.01,2013-07-15 12:00:00,
2013-07-15 08:06:00,76.8,75.3,29.83,SSW,200,0.0,0.0,95,0.00,,,0.00,VWS V14.01,2013-07-15 12:06:00,
2013-07-15 08:10:00,77.5,76.0,29.83,SSW,200,0.0,0.0,95,0.00,,,0.00,VWS V14.01,2013-07-15 12:10:00,
2013-07-15 08:15:00,78.1,76.5,29.83,SSW,200,0.0,0.0,95,0.00,,,0.00,VWS V14.01,2013-07-15 12:15:00,
2013-07-15 08:20:00,78.4,76.9,29.83,SSW,200,0.0,0.0,95,0.00,,,0.00,VWS V14.01,2013-07-15 12:20:00,
2013-07-15 08:25:00,79.0,77.1,29.83,SSW,200,0.0,0.0,94,0.00,,,0.00,VWS V14.01,2013-07-15 12:25:00,
2013-07-15 08:30:00,79.5,77.7,29.83,SSW,200,0.0,0.0,94,0.00,,,0.00,VWS V14.01,2013-07-15 12:30:00,
2013-07-15 08:35:00,79.9,78.0,29.83,SSW,200,0.0,0.0,94,0.00,,,0.00,VWS V14.01,2013-07-15 12:35:00,
2013-07-15 08:40:00,80.2,78.4,29.83,SSW,200,0.0,0.0,94,0.00,,,0.00,VWS V14.01,2013-07-15 12:40:00,
2013-07-15 08:45:00,80.4,78.5,29.83,SSW,200,0.0,0.0,94,0.00,,,0.00,VWS V14.01,2013-07-15 12:45:00,
2013-07-15 08:50:00,80.8,78.2,29.83,SSW,197,0.0,0.0,92,0.00,,,0.00,VWS V14.01,2013-07-15 12:50:00,
2013-07-15 08:55:00,81.1,78.3,29.83,SSW,197,0.0,0.0,91,0.00,,,0.00,VWS V14.01,2013-07-15 12:55:00,
2013-07-15 09:00:00,81.3,78.1,29.83,SSW,197,0.0,0.0,90,0.00,,,0.00,VWS V14.01,2013-07-15 13:00:00,
2013-07-15 09:05:00,81.5,77.9,29.83,SSW,197,0.0,0.0,89,0.00,,,0.00,VWS V14.01,2013-07-15 13:05:00,
2013-07-15 09:10:00,81.5,77.6,29.83,SSW,197,0.0,0.0,88,0.00,,,0.00,VWS V14.01,2013-07-15 13:10:00,
2013-07-15 09:15:00,81.7,77.1,29.83,SSW,197,0.0,0.0,86,0.00,,,0.00,VWS V14.01,2013-07-15 13:15:00,
2013-07-15 09:20:00,81.7,74.9,29.83,SSW,197,0.0,0.0,80,0.00,,,0.00,VWS V14.01,2013-07-15 13:20:00,
2013-07-15 09:25:00,81.9,73.9,29.83,SSW,197,0.0,0.0,77,0.00,,,0.00,VWS V14.01,2013-07-15 13:25:00,
2013-07-15 09:30:00,81.7,73.0,29.83,SSW,198,0.0,0.0,75,0.00,,,0.00,VWS V14.01,2013-07-15 13:30:00,
2013-07-15 09:35:00,82.4,72.9,29.83,ESE,113,0.0,0.0,73,0.00,,,0.00,VWS V14.01,2013-07-15 13:35:00,
2013-07-15 09:40:00,82.8,72.8,29.83,ESE,113,0.0,0.0,72,0.00,,,0.00,VWS V14.01,2013-07-15 13:40:00,
2013-07-15 09:45:00,82.9,73.0,29.83,ESE,113,0.0,0.0,72,0.00,,,0.00,VWS V14.01,2013-07-15 13:45:00,
2013-07-15 09:50:00,83.5,71.4,29.83,ESE,116,0.0,0.0,67,0.00,,,0.00,VWS V14.01,2013-07-15 13:50:00,
2013-07-15 09:55:00,83.8,72.2,29.83,ESE,116,0.0,0.0,68,0.00,,,0.00,VWS V14.01,2013-07-15 13:55:00,
2013-07-15 10:00:00,84.2,72.1,29.83,SSE,159,0.0,0.0,67,0.00,,,0.00,VWS V14.01,2013-07-15 14:00:00,
2013-07-15 10:05:00,84.7,72.1,29.83,SSE,159,0.0,0.0,66,0.00,,,0.00,VWS V14.01,2013-07-15 14:05:00,
2013-07-15 10:10:00,85.1,72.0,29.83,SW,234,0.0,0.0,65,0.00,,,0.00,VWS V14.01,2013-07-15 14:10:00,
2013-07-15 10:15:00,85.6,70.7,29.83,SW,234,0.0,0.0,61,0.00,,,0.00,VWS V14.01,2013-07-15 14:15:00,
2013-07-15 10:20:00,86.4,71.3,29.83,SW,234,0.0,0.0,61,0.00,,,0.00,VWS V14.01,2013-07-15 14:20:00,
2013-07-15 10:25:00,86.9,69.3,29.83,SW,234,0.0,0.0,56,0.00,,,0.00,VWS V14.01,2013-07-15 14:25:00,
2013-07-15 10:30:00,87.1,69.5,29.83,SW,234,0.0,0.0,56,0.00,,,0.00,VWS V14.01,2013-07-15 14:30:00,
2013-07-15 10:35:00,87.4,69.8,29.83,SW,234,0.0,0.0,56,0.00,,,0.00,VWS V14.01,2013-07-15 14:35:00,
2013-07-15 10:40:00,87.6,68.4,29.83,SW,234,0.0,0.0,53,0.00,,,0.00,VWS V14.01,2013-07-15 14:40:00,
2013-07-15 10:45:00,87.6,68.9,29.83,SE,128,0.0,0.0,54,0.00,,,0.00,VWS V14.01,2013-07-15 14:45:00,
2013-07-15 10:50:00,87.8,68.6,29.83,SSE,152,0.0,0.0,53,0.00,,,0.00,VWS V14.01,2013-07-15 14:50:00,
2013-07-15 10:55:00,88.2,69.4,29.83,SSE,152,0.0,0.0,54,0.00,,,0.00,VWS V14.01,2013-07-15 14:55:00,
2013-07-15 11:00:00,88.3,69.6,29.83,SSE,152,0.0,0.0,54,0.00,,,0.00,VWS V14.01,2013-07-15 15:00:00,
2013-07-15 11:06:00,88.5,69.2,29.83,SSE,152,0.0,0.0,53,0.00,,,0.00,VWS V14.01,2013-07-15 15:06:00,
2013-07-15 11:11:00,89.1,69.2,29.83,SSE,152,0.0,0.0,52,0.00,,,0.00,VWS V14.01,2013-07-15 15:11:00,
2013-07-15 11:16:00,88.9,69.0,29.83,ESE,112,0.0,0.0,52,0.00,,,0.00,VWS V14.01,2013-07-15 15:16:00,
2013-07-15 11:21:00,88.7,68.8,29.83,South,182,0.0,0.0,52,0.00,,,0.00,VWS V14.01,2013-07-15 15:21:00,
2013-07-15 11:26:00,88.5,67.5,29.83,South,182,0.0,0.0,50,0.00,,,0.00,VWS V14.01,2013-07-15 15:26:00,
2013-07-15 11:31:00,88.3,67.4,29.83,SSW,195,0.0,0.0,50,0.00,,,0.00,VWS V14.01,2013-07-15 15:31:00,
2013-07-15 11:36:00,88.3,67.4,29.83,South,172,0.0,0.0,50,0.00,,,0.00,VWS V14.01,2013-07-15 15:36:00,
2013-07-15 11:41:00,88.0,68.2,29.83,South,172,0.0,0.0,52,0.00,,,0.00,VWS V14.01,2013-07-15 15:41:00,
2013-07-15 11:46:00,88.0,68.2,29.83,SW,215,0.0,0.0,52,0.00,,,0.00,VWS V14.01,2013-07-15 15:46:00,
2013-07-15 11:51:00,88.5,68.1,29.83,SSW,207,0.0,0.0,51,0.00,,,0.00,VWS V14.01,2013-07-15 15:51:00,
2013-07-15 11:56:00,89.1,65.6,29.83,SSW,208,0.0,0.0,46,0.00,,,0.00,VWS V14.01,2013-07-15 15:56:00,
2013-07-15 12:01:00,89.4,67.2,29.83,SSW,207,0.0,0.0,48,0.00,,,0.00,VWS V14.01,2013-07-15 16:01:00,
2013-07-15 12:06:00,89.6,67.3,29.83,SSE,155,0.0,0.0,48,0.00,,,0.00,VWS V14.01,2013-07-15 16:06:00,
2013-07-15 12:11:00,89.8,66.9,29.83,South,176,0.0,0.0,47,0.00,,,0.00,VWS V14.01,2013-07-15 16:11:00,
2013-07-15 12:16:00,88.7,65.9,29.83,SSE,164,0.0,0.0,47,0.00,,,0.00,VWS V14.01,2013-07-15 16:16:00,
2013-07-15 12:22:00,88.2,66.0,29.83,SSE,164,0.0,0.0,48,0.00,,,0.00,VWS V14.01,2013-07-15 16:22:00,
2013-07-15 12:27:00,87.6,66.1,29.83,SSE,164,0.0,0.0,49,0.00,,,0.00,VWS V14.01,2013-07-15 16:27:00,
2013-07-15 12:32:00,87.4,66.5,29.83,SSE,164,0.0,0.0,50,0.00,,,0.00,VWS V14.01,2013-07-15 16:32:00,
2013-07-15 12:37:00,87.4,67.1,29.83,SSE,164,0.0,0.0,51,0.00,,,0.00,VWS V14.01,2013-07-15 16:37:00,
2013-07-15 12:42:00,87.3,67.5,29.83,SSE,164,0.0,0.0,52,0.00,,,0.00,VWS V14.01,2013-07-15 16:42:00,
2013-07-15 12:47:00,87.4,68.8,29.83,SSE,164,0.0,0.0,54,0.00,,,0.00,VWS V14.01,2013-07-15 16:47:00,
2013-07-15 12:52:00,87.3,68.6,29.83,SSE,164,0.0,0.0,54,0.00,,,0.00,VWS V14.01,2013-07-15 16:52:00,
2013-07-15 12:57:00,87.1,67.9,29.80,SSE,164,0.0,0.0,53,0.00,,,0.00,VWS V14.01,2013-07-15 16:57:00,
2013-07-15 13:02:00,86.9,68.3,29.80,SSE,164,0.0,0.0,54,0.00,,,0.00,VWS V14.01,2013-07-15 17:02:00,
2013-07-15 13:07:00,86.7,68.1,29.80,SSE,164,0.0,0.0,54,0.00,,,0.00,VWS V14.01,2013-07-15 17:07:00,
2013-07-15 13:12:00,86.5,67.9,29.80,SSE,164,0.0,0.0,54,0.00,,,0.00,VWS V14.01,2013-07-15 17:12:00,
2013-07-15 13:17:00,86.9,68.8,29.80,SSE,164,0.0,0.0,55,0.00,,,0.00,VWS V14.01,2013-07-15 17:17:00,
2013-07-15 13:22:00,87.1,69.5,29.80,SSE,164,0.0,0.0,56,0.00,,,0.00,VWS V14.01,2013-07-15 17:22:00,
2013-07-15 13:27:00,87.1,69.5,29.80,SSE,164,0.0,0.0,56,0.00,,,0.00,VWS V14.01,2013-07-15 17:27:00,
2013-07-15 13:32:00,87.8,70.2,29.80,SSE,164,0.0,0.0,56,0.00,,,0.00,VWS V14.01,2013-07-15 17:32:00,
2013-07-15 13:37:00,88.0,69.3,29.80,SSE,164,0.0,0.0,54,0.00,,,0.00,VWS V14.01,2013-07-15 17:37:00,
2013-07-15 13:42:00,88.0,69.3,29.80,SSE,164,0.0,0.0,54,0.00,,,0.00,VWS V14.01,2013-07-15 17:42:00,
2013-07-15 13:48:00,87.8,69.1,29.80,SSE,164,0.0,0.0,54,0.00,,,0.00,VWS V14.01,2013-07-15 17:48:00,
2013-07-15 13:53:00,87.4,69.8,29.80,SSE,164,0.0,0.0,56,0.00,,,0.00,VWS V14.01,2013-07-15 17:53:00,
2013-07-15 13:58:00,87.3,69.1,29.80,SSE,164,0.0,0.0,55,0.00,,,0.00,VWS V14.01,2013-07-15 17:58:00,
2013-07-15 14:03:00,87.1,70.0,29.80,SSE,164,0.0,0.0,57,0.00,,,0.00,VWS V14.01,2013-07-15 18:03:00,
2013-07-15 14:08:00,86.9,69.8,29.80,SSE,164,0.0,0.0,57,0.00,,,0.00,VWS V14.01,2013-07-15 18:08:00,
2013-07-15 14:13:00,86.7,69.7,29.80,SSE,164,0.0,0.0,57,0.00,,,0.00,VWS V14.01,2013-07-15 18:13:00,
2013-07-15 14:18:00,87.1,69.5,29.80,SSE,164,0.0,0.0,56,0.00,,,0.00,VWS V14.01,2013-07-15 18:18:00,
2013-07-15 14:23:00,87.6,69.5,29.80,SSE,164,0.0,0.0,55,0.00,,,0.00,VWS V14.01,2013-07-15 18:23:00,
2013-07-15 14:28:00,87.4,69.3,29.80,North,7,0.0,0.0,55,0.00,,,0.00,VWS V14.01,2013-07-15 18:28:00,
2013-07-15 14:33:00,87.1,69.5,29.80,North,7,0.0,0.0,56,0.00,,,0.00,VWS V14.01,2013-07-15 18:33:00,
2013-07-15 14:38:00,87.1,69.5,29.80,North,7,0.0,0.0,56,0.00,,,0.00,VWS V14.01,2013-07-15 18:38:00,
2013-07-15 14:43:00,87.1,69.5,29.80,North,7,0.0,0.0,56,0.00,,,0.00,VWS V14.01,2013-07-15 18:43:00,
2013-07-15 14:48:00,86.9,71.3,29.80,North,7,0.0,0.0,60,0.00,,,0.00,VWS V14.01,2013-07-15 18:48:00,
2013-07-15 14:53:00,87.4,70.9,29.80,North,7,0.0,0.0,58,0.00,,,0.00,VWS V14.01,2013-07-15 18:53:00,
2013-07-15 14:58:00,87.8,70.7,29.80,West,277,0.0,0.0,57,0.00,,,0.00,VWS V14.01,2013-07-15 18:58:00,
2013-07-15 15:03:00,88.5,69.2,29.80,West,277,0.0,0.0,53,0.00,,,0.00,VWS V14.01,2013-07-15 19:03:00,
2013-07-15 15:09:00,88.5,69.2,29.80,West,277,0.0,0.0,53,0.00,,,0.00,VWS V14.01,2013-07-15 19:09:00,
2013-07-15 15:14:00,89.1,69.2,29.80,WSW,237,2.7,2.7,52,0.00,,,0.00,VWS V14.01,2013-07-15 19:14:00,
2013-07-15 15:19:00,89.1,69.2,29.80,WSW,237,0.0,0.0,52,0.00,,,0.00,VWS V14.01,2013-07-15 19:19:00,
2013-07-15 15:24:00,89.6,67.3,29.80,SW,232,0.0,0.0,48,0.00,,,0.00,VWS V14.01,2013-07-15 19:24:00,
2013-07-15 15:29:00,89.8,68.1,29.80,SSE,165,0.0,0.0,49,0.00,,,0.00,VWS V14.01,2013-07-15 19:29:00,
2013-07-15 15:34:00,89.8,68.1,29.80,SW,219,0.0,0.0,49,0.00,,,0.00,VWS V14.01,2013-07-15 19:34:00,
2013-07-15 15:39:00,89.8,67.5,29.80,SW,219,0.0,0.0,48,0.00,,,0.00,VWS V14.01,2013-07-15 19:39:00,
2013-07-15 15:44:00,89.8,66.3,29.77,SW,219,0.0,0.0,46,0.00,,,0.00,VWS V14.01,2013-07-15 19:44:00,
2013-07-15 15:49:00,89.6,66.1,29.77,SW,219,0.0,0.0,46,0.00,,,0.00,VWS V14.01,2013-07-15 19:49:00,
2013-07-15 15:54:00,89.6,66.1,29.77,SW,219,0.0,0.0,46,0.00,,,0.00,VWS V14.01,2013-07-15 19:54:00,
2013-07-15 15:59:00,88.2,64.8,29.77,SW,219,0.0,0.0,46,0.00,,,0.00,VWS V14.01,2013-07-15 19:59:00,
2013-07-15 16:04:00,87.8,65.1,29.77,SW,219,0.0,0.0,47,0.00,,,0.00,VWS V14.01,2013-07-15 20:04:00,
2013-07-15 16:09:00,87.8,65.1,29.77,SW,219,0.0,0.0,47,0.00,,,0.00,VWS V14.01,2013-07-15 20:09:00,
2013-07-15 16:14:00,87.3,65.8,29.77,SW,219,0.0,0.0,49,0.00,,,0.00,VWS V14.01,2013-07-15 20:14:00,
2013-07-15 16:20:00,87.3,65.8,29.77,SW,219,0.0,0.0,49,0.00,,,0.00,VWS V14.01,2013-07-15 20:20:00,
2013-07-15 16:25:00,86.9,66.0,29.77,SW,219,0.0,0.0,50,0.00,,,0.00,VWS V14.01,2013-07-15 20:25:00,
2013-07-15 16:30:00,86.4,66.1,29.77,SW,219,0.0,0.0,51,0.00,,,0.00,VWS V14.01,2013-07-15 20:30:00,
2013-07-15 16:35:00,86.4,66.1,29.77,SW,219,0.0,0.0,51,0.00,,,0.00,VWS V14.01,2013-07-15 20:35:00,
2013-07-15 16:40:00,86.4,66.1,29.77,SW,219,0.0,0.0,51,0.00,,,0.00,VWS V14.01,2013-07-15 20:40:00,
2013-07-15 16:45:00,86.0,68.0,29.77,SW,219,0.0,0.0,55,0.00,,,0.00,VWS V14.01,2013-07-15 20:45:00,
2013-07-15 16:50:00,85.8,67.8,29.77,SW,219,0.0,0.0,55,0.00,,,0.00,VWS V14.01,2013-07-15 20:50:00,
2013-07-15 16:55:00,85.6,67.6,29.77,SW,219,0.0,0.0,55,0.00,,,0.00,VWS V14.01,2013-07-15 20:55:00,
2013-07-15 17:00:00,85.5,68.0,29.77,SW,219,0.0,0.0,56,0.00,,,0.00,VWS V14.01,2013-07-15 21:00:00,
2013-07-15 17:05:00,85.5,68.0,29.77,SW,219,0.0,0.0,56,0.00,,,0.00,VWS V14.01,2013-07-15 21:05:00,
2013-07-15 17:10:00,85.3,68.3,29.77,SW,219,0.0,0.0,57,0.00,,,0.00,VWS V14.01,2013-07-15 21:10:00,
2013-07-15 17:15:00,85.3,68.8,29.77,SW,219,0.0,0.0,58,0.00,,,0.00,VWS V14.01,2013-07-15 21:15:00,
2013-07-15 17:21:00,85.1,68.7,29.77,SW,219,0.0,0.0,58,0.00,,,0.00,VWS V14.01,2013-07-15 21:21:00,
2013-07-15 17:26:00,85.1,68.7,29.77,SW,219,0.0,0.0,58,0.00,,,0.00,VWS V14.01,2013-07-15 21:26:00,
2013-07-15 17:31:00,85.1,68.7,29.77,SW,219,0.0,0.0,58,0.00,,,0.00,VWS V14.01,2013-07-15 21:31:00,
2013-07-15 17:36:00,84.9,69.5,29.77,SW,219,0.0,0.0,60,0.00,,,0.00,VWS V14.01,2013-07-15 21:36:00,
2013-07-15 17:41:00,84.7,69.3,29.77,SW,219,0.0,0.0,60,0.00,,,0.00,VWS V14.01,2013-07-15 21:41:00,
2013-07-15 17:46:00,84.6,69.6,29.77,SW,219,0.0,0.0,61,0.00,,,0.00,VWS V14.01,2013-07-15 21:46:00,
2013-07-15 17:51:00,84.4,69.9,29.77,SW,219,0.0,0.0,62,0.00,,,0.00,VWS V14.01,2013-07-15 21:51:00,
2013-07-15 17:56:00,84.2,69.8,29.77,SW,219,0.0,0.0,62,0.00,,,0.00,VWS V14.01,2013-07-15 21:56:00,
2013-07-15 18:01:00,84.2,69.8,29.77,SW,219,0.0,0.0,62,0.00,,,0.00,VWS V14.01,2013-07-15 22:01:00,
2013-07-15 18:06:00,83.8,69.9,29.77,SW,219,0.0,0.0,63,0.00,,,0.00,VWS V14.01,2013-07-15 22:06:00,
2013-07-15 18:11:00,83.8,69.9,29.77,SW,219,0.0,0.0,63,0.00,,,0.00,VWS V14.01,2013-07-15 22:11:00,
2013-07-15 18:16:00,83.8,69.9,29.77,SW,219,0.0,0.0,63,0.00,,,0.00,VWS V14.01,2013-07-15 22:16:00,
2013-07-15 18:21:00,83.7,70.7,29.77,SW,219,0.0,0.0,65,0.00,,,0.00,VWS V14.01,2013-07-15 22:21:00,
2013-07-15 18:26:00,83.7,70.7,29.77,SW,219,0.0,0.0,65,0.00,,,0.00,VWS V14.01,2013-07-15 22:26:00,
2013-07-15 18:31:00,83.7,71.6,29.77,SW,219,0.0,0.0,67,0.00,,,0.00,VWS V14.01,2013-07-15 22:31:00,
2013-07-15 18:37:00,83.7,71.6,29.77,SW,219,0.0,0.0,67,0.00,,,0.00,VWS V14.01,2013-07-15 22:37:00,
2013-07-15 18:42:00,83.5,71.8,29.77,SW,219,0.0,0.0,68,0.00,,,0.00,VWS V14.01,2013-07-15 22:42:00,
2013-07-15 18:47:00,83.5,72.2,29.77,SW,219,0.0,0.0,69,0.00,,,0.00,VWS V14.01,2013-07-15 22:47:00,
2013-07-15 18:52:00,83.5,72.2,29.77,SW,219,0.0,0.0,69,0.00,,,0.00,VWS V14.01,2013-07-15 22:52:00,
2013-07-15 18:57:00,83.5,72.2,29.77,SW,219,0.0,0.0,69,0.00,,,0.00,VWS V14.01,2013-07-15 22:57:00,
2013-07-15 19:02:00,83.5,72.2,29.77,SW,219,0.0,0.0,69,0.00,,,0.00,VWS V14.01,2013-07-15 23:02:00,
2013-07-15 19:07:00,83.5,73.1,29.77,SW,219,0.0,0.0,71,0.00,,,0.00,VWS V14.01,2013-07-15 23:07:00,
2013-07-15 19:12:00,83.3,72.9,29.77,SW,219,0.0,0.0,71,0.00,,,0.00,VWS V14.01,2013-07-15 23:12:00,
2013-07-15 19:17:00,83.3,72.9,29.77,SW,219,0.0,0.0,71,0.00,,,0.00,VWS V14.01,2013-07-15 23:17:00,
2013-07-15 19:22:00,83.3,72.9,29.77,SW,219,0.0,0.0,71,0.00,,,0.00,VWS V14.01,2013-07-15 23:22:00,
2013-07-15 19:27:00,83.1,72.8,29.77,SW,219,0.0,0.0,71,0.00,,,0.00,VWS V14.01,2013-07-15 23:27:00,
2013-07-15 19:32:00,82.9,73.0,29.74,SW,219,0.0,0.0,72,0.00,,,0.00,VWS V14.01,2013-07-15 23:32:00,
2013-07-15 19:37:00,82.9,73.0,29.74,SW,219,0.0,0.0,72,0.00,,,0.00,VWS V14.01,2013-07-15 23:37:00,
2013-07-15 19:42:00,82.8,73.2,29.74,SW,219,0.0,0.0,73,0.00,,,0.00,VWS V14.01,2013-07-15 23:42:00,
2013-07-15 19:47:00,82.8,73.2,29.74,SW,219,0.0,0.0,73,0.00,,,0.00,VWS V14.01,2013-07-15 23:47:00,
2013-07-15 19:52:00,82.8,73.2,29.74,SW,219,0.0,0.0,73,0.00,,,0.00,VWS V14.01,2013-07-15 23:52:00,
2013-07-15 19:57:00,82.6,73.1,29.74,SW,219,0.0,0.0,73,0.00,,,0.00,VWS V14.01,2013-07-15 23:57:00,
2013-07-15 20:02:00,82.4,73.3,29.74,SW,219,0.0,0.0,74,0.00,,,0.00,VWS V14.01,2013-07-16 00:02:00,
2013-07-15 20:07:00,82.2,73.1,29.74,SW,219,0.0,0.0,74,0.00,,,0.00,VWS V14.01,2013-07-16 00:07:00,
2013-07-15 20:13:00,82.0,72.9,29.74,SW,219,0.0,0.0,74,0.00,,,0.00,VWS V14.01,2013-07-16 00:13:00,
2013-07-15 20:18:00,81.9,72.8,29.74,SW,219,0.0,0.0,74,0.00,,,0.00,VWS V14.01,2013-07-16 00:18:00,
2013-07-15 20:23:00,81.9,72.8,29.74,SW,219,0.0,0.0,74,0.00,,,0.00,VWS V14.01,2013-07-16 00:23:00,
2013-07-15 20:28:00,81.5,72.8,29.74,SW,219,0.0,0.0,75,0.00,,,0.00,VWS V14.01,2013-07-16 00:28:00,
2013-07-15 20:33:00,81.1,72.5,29.74,SW,219,0.0,0.0,75,0.00,,,0.00,VWS V14.01,2013-07-16 00:33:00,
2013-07-15 20:38:00,81.1,72.5,29.74,SW,219,0.0,0.0,75,0.00,,,0.00,VWS V14.01,2013-07-16 00:38:00,
2013-07-15 20:43:00,80.8,72.1,29.74,SW,219,0.0,0.0,75,0.00,,,0.00,VWS V14.01,2013-07-16 00:43:00,
2013-07-15 20:48:00,80.4,72.2,29.74,SW,219,0.0,0.0,76,0.00,,,0.00,VWS V14.01,2013-07-16 00:48:00,
2013-07-15 20:53:00,80.4,72.2,29.74,SW,219,0.0,0.0,76,0.00,,,0.00,VWS V14.01,2013-07-16 00:53:00,
2013-07-15 20:58:00,79.9,71.6,29.74,SW,219,0.0,0.0,76,0.00,,,0.00,VWS V14.01,2013-07-16 00:58:00,
2013-07-15 21:03:00,79.9,71.6,29.77,SW,219,0.0,0.0,76,0.00,,,0.00,VWS V14.01,2013-07-16 01:03:00,